Regional Weather Roundup
Issued by NWS Wakefield, VA

Home | Current Version | Previous Version | Graphics & Text | Print | Product List | Glossary On
Versions: 1 2 3 4 5 6 7 8 9 10 11 12 13 14 15 16 17 18 19 20 21 22 23 24 25 26 27 28 29 30 31 32 33 34 35 36 37 38 39 40 41 42 43 44 45 46 47 48 49 50
000
ASUS41 KAKQ 260910
RWRAKQ

REGIONAL WEATHER ROUNDUP
NATIONAL WEATHER SERVICE WAKEFIELD VA
400 AM EST MON JAN 26 2015

Note: "fair" indicates few or no clouds below 12,000 feet with no
significant weather and/or obstructions to visibility. * = Denotes
station may not report precipitation (e.g., rain,snow,etc.),
thunder or fog.

VAZ042-051-052>054-056-261000-
NORTHERN VIRGINIA

CITY           SKY/WX    TMP DP  RH WIND       PRES   REMARKS
WASH NATIONAL  LGT RAIN  42  35  76 NE9       29.81F
DULLES         LGT RAIN  39  34  82 E10       29.78F
FORT BELVOIR   LGT RAIN  39  36  87 VRB3      29.80F
QUANTICO       LGT RAIN  40  35  83 E6        29.79F
FREDERICKSBRG* LGT RAIN  40  37  89 E3        29.77F
STAFFORD*      LGT RAIN  39  36  91 CALM      29.81F
WARRENTON      RAIN      40  39  95 E3        29.76F
CULPEPER*      LGT RAIN  39  37  93 CALM      29.76F
MANASSAS*      CLOUDY    39  37  93 E3        29.78F
LEESBURG*      CLOUDY    37  37 100 NE6       29.80S
WINCHESTER     CLOUDY    36  32  87 NE3       29.75F FOG
FRONT ROYAL*   CLOUDY    36  34  93 N5        29.73F
LURAY*         LGT RAIN  37  37 100 NE7       29.72F
$$

VAZ048-049-060>072-079>083-261000-
CENTRAL AND SOUTH CENTRAL VIRGINIA

CITY           SKY/WX    TMP DP  RH WIND       PRES   REMARKS
RICHMOND       LGT RAIN  41  37  86 CALM      29.76F
CHESTERFIELD*  CLOUDY    39  28  65 CALM      29.76F
PETERSBURG*    CLOUDY    40  36  85 CALM      29.76F
HANOVER        LGT RAIN  39  37  92 CALM      29.78F
TAPPAHANNOCK*  DRIZZLE   40  33  74 CALM      29.79F
QUINTON*       CLOUDY    38  36  91 E3        29.77F
CHARLOTTSVILLE LGT RAIN  37  35  92 N3        29.73F FOG
GORDONSVILLE*  CLOUDY    34  33  97 CALM      29.74F FOG
ORANGE*        RAIN      36  36 100 CALM      29.76F
LOUISA*        LGT RAIN  39  37  93 CALM      29.73F
BUMPASS*       CLOUDY    38  37  93 E3        29.75F
FARMVILLE*     LGT RAIN  42  38  87 CALM      29.72F
CREWE*         CLOUDY    39  38  95 CALM      29.73F
FORT PICKETT*  CLOUDY    39  38  97 CALM      29.74S
CHASE CITY*    CLOUDY    41  41 100 CALM      29.72F
CLARKSVILLE*   CLOUDY    37  37 100 CALM      29.72F
SOUTH HILL*    CLOUDY    38  35  91 N3        29.79F
LAWRENCEVILLE* PTSUNNY   38  35  91 CALM      29.73F
EMPORIA*       CLOUDY    34  34 100 CALM      29.76F
$$

VAZ088>098-261000-
SOUTHEAST VIRGINIA

CITY           SKY/WX    TMP DP  RH WIND       PRES   REMARKS
NORFOLK        CLOUDY    41  35  79 SE5       29.77F
VIRGINIA BEACH CLOUDY    37  34  89 E3        29.77F
NORFOLK NAVAL  CLOUDY    43  35  73 SE7       29.79F
WEST POINT*    CLOUDY    41  35  78 CALM      29.79F
SALUDA*        PTSUNNY   39  35  87 E3        29.78F
NEWPORT NEWS   CLOUDY    43  35  73 SE7       29.78F
LANGLEY AFB    CLOUDY    40  36  84 SE3       29.78F
FORT EUSTIS    MOCLDY    41  37  86 SE6       29.75F
WILLIAMSBURG*    N/A     43  37  81 SE5       29.78F
HR EXEC AP*    CLOUDY    36  34  93 CALM      29.79F
FRANKLIN*      CLOUDY    36  34  91 CALM      29.76F
WAKEFIELD      CLOUDY    38  34  85 CALM      29.76F
$$

VAZ020-022-025-037-045-261000-
WEST CENTRAL AND SOUTHWEST VIRGINIA

CITY           SKY/WX    TMP DP  RH WIND       PRES   REMARKS
STAUNTON*      LGT RAIN  37  33  89 CALM      29.72S
WAYNESBORO*    CLOUDY    37  35  92 SE5       29.69F
HOT SPRINGS VA SNOW      32  32 100 CALM      29.58F VSB 1/4
LYNCHBURG      CLOUDY    39  37  92 N3        29.69F
DANVILLE       CLOUDY    42  35  76 E3        29.69F
SOUTH BOSTON*  CLOUDY    40  38  93 E5        29.70F
MARTINSVILLE   PTCLDY    33  33 100 NW3       29.68F
ROANOKE        CLOUDY    39  32  76 SE6       29.69S
BLACKSBURG     MOCLDY    32  28  86 E5        29.66F
DUBLIN*        PTCLDY    34  32  91 CALM      29.63F
MARION*        CLOUDY    34  30  85 CALM      29.63F
HILLSVILLE*    PTCLDY    37  31  77 CALM      29.60F
RICHLANDS*     CLOUDY    40  31  69 SW6       29.60F
WISE*          CLOUDY    37  34  87 S3        29.61F
ABINGDON*      CLOUDY    42  35  76 CALM      29.62F
$$

MDZ021>025-VAZ099-100-261000-
SOUTHERN MARYLAND AND THE DELMARVA PENINSULA

CITY           SKY/WX    TMP DP  RH WIND       PRES   REMARKS
PATUXENT RIVER LGT RAIN  39  35  86 SE9       29.80F
BAY BRIDGE APT   N/A     39  32  75 E8        29.84S
LEONARDTOWN    CLOUDY    39  34  81 E5        29.81F
DOVER          CLOUDY    35  31  83 NE12      29.87R
GEORGETOWN     CLOUDY    41  34  76 E14       29.86S
EASTON         CLOUDY    42  36  80 E7        29.87S
CAMBRIDGE      CLOUDY    41  34  75 E5        29.81F
SALISBURY      CLOUDY    41  35  79 E6        29.83F
OCEAN CITY     CLOUDY    40  38  93 NE5       29.84F
WALLOPS ISLAND CLOUDY    39  37  92 E5        29.82F
ACCOMACK*      CLOUDY    39  34  81 E5        29.80F
$$

NCZ012>017-030>032-261000-
NORTH CENTRAL AND EASTERN NORTH CAROLINA

CITY           SKY/WX    TMP DP  RH WIND       PRES   REMARKS
ROANOKE RAPIDS CLOUDY    36  34  93 CALM      29.73F
RALEIGH        CLOUDY    39  34  82 CALM      29.71F
ELIZABETH CITY MOCLDY    39  37  92 E5        29.77F
AHOSKIE*         N/A     36  34  93 CALM      29.75F
EDENTON*       MOCLDY    38  37  95 CALM      29.76F
CURRITUCK*     PTCLDY    35  33  94 E3        29.78F
KILL DEVIL HLS CLEAR     44  42  93 E5        29.76F
MANTEO         MOCLDY    43  39  87 E7        29.77F
CAPE HATTERAS  PTCLDY    47  42  83 NE8       29.75F
TARBORO*       FAIR      36  35  95 CALM      29.75F
GOLDSBORO      MOCLDY    39  39  99 SE2       29.71F
WASHINGTON     PTCLDY    36  34  92 CALM      29.75F
GREENVILLE     PTCLDY    37  36  93 CALM      29.77F
NEW BERN       MOCLDY    38  34  85 CALM      29.76F
WILMINGTON     MOCLDY    41  39  93 CALM      29.74F
$$

VAZ048-261000-
ELSEWHERE

CITY           SKY/WX    TMP DP  RH WIND       PRES   REMARKS
HARRISBURG PA  LGT SNOW  26  23  88 E7        29.89S
BALTIMORE      LGT RAIN  36  34  93 NE14      29.83F FOG
ANNAPOLIS      LGT RAIN  39  32  76 NE10      29.83F
ANDREWS AFB    LGT RAIN  39  36  90 NE9       29.80S
PHILADELPHIA   CLOUDY    30  22  72 NE12      29.94F WCI  20
HENDERSON NC   CLOUDY    39  34  82 CALM      29.72F
GREENSBORO     CLOUDY    39  33  79 SE6       29.65F
ROCKY MOUNT    MOCLDY    39  35  86 CALM      29.73F
$$

VAZ100-261000-
MARINE

STATION/POSITION TIME  TEMP    WIND        PRES    WAVE   SWELL
                       AIR SEA DIR/SP/G            HT/PER HT/PER
                 (UTC) (F)     (DEG/KT/KT) (MB)    (FT/S) (FT/S)
BRANDYWINE LGT   0900   37 37   80/ 21/ 25 1011.6F
CAPE MAY NJ      0900   37 39   60/  7/ 15 1011.4F
LEWES DE         0900   39 38   80/ 18/ 26 1011.0F
15NM E FENWICK I 0900   43 42              1010.5F   2/10
OCEAN-CITY-INLET 0900   42 40   70/  6/  8 1010.1F
WACHAPREAGUE VA  0900   41 42   70/  4/  5 1009.0F
THOMAS POINT MD  0900   40 37   60/  9/ 10 1011.2F
GOOSES REEF MD   0900   39     VRB  8/ 10  1008.5F
COVE POINT MD    0900   40     150/ 11/ 13 1009.1F
SOLOMONS ISLAND  0900      39                N/A
BISHOPS HEAD MD  0900   40 39   90/  7/ 10 1008.8F
PINEY POINT MD   0900          110/  7/  8   N/A
POTOMAC MD       0900   39     120/  6/  6 1008.1F
CAMBRIDGE MD     0900   40 36   90/  4/  5 1009.5F
LEWISETTA VA     0900   40 39  100/  7/  8 1008.4F
RAPPAHANNOCK LGT 0900          100/ 10/ 11 1009.2S
STINGRAY PT      0900   40     140/  8/  8 1009.1F
YORK RVR RNG VA  0900   41     130/ 11/ 12 1007.5F
YORKTOWN VA      0900   41 41  130/  3/  5 1007.8F
JAMESTOWN VA     0900   40     120/  6/ 10   N/A
DOMINION TERM VA 0900   42     110/  3/  8 1008.1F
KIPTOPEKE VA     0900      45  100/  6/  7   N/A
CHES BAY BRIDGE  0900   42 42   90/  4/  6 1007.9F
CAPE HENRY VA    0900   42     110/  9/ 10 1007.1F
CHESAPEAKE LGHT  0800   45     110/  9/  9 1010.1F
WILLOUBY STN VA  0900   42     130/  8/  9 1008.5F
S CRANEY ISL VA  0900           CALM  /  1 1007.9F
CAPE HENRY BUOY  0900      42                N/A     2/10
1ST LANDING BUOY 0900   43     120/ 10/ 10 1008.4F
CAPE CHARLES BUO 0900      42                N/A     2/ 9   2/ 9
OFFSHORE WE BUOY 0900      47                N/A     2/ 9   2/ 9
64NM E OF VA BCH 0900   51 52   80/  2/  4 1008.8F   3/ 8   3/ 8
DUCK PIER NC     0900   44 44   90/  9/ 10 1007.4F
44100 DUCK FRF   0900      44                N/A     2/10
44056 DUCK FRF   0900      43                N/A     2/10   2/11
OREGON INLET NC  0900   45 46   50/  6/  8 1007.9F
HATTERAS NC      0900   49 53   60/  6/  8 1007.5F



USA.gov is the U.S. government's official web portal to all federal, state and local government web resources and services.